Temperature
1 2 2 2 2 2 2 2 2 2 2 3 2 1 1 2 2 2 2 2 2 2 2 2 3 3 3 3 3 3 3 3 3 3 3 3 3 3 3 3 3 3 3 2
1 2 2 2 2 2 2 3 2 2 2 2 2 2 1 1 1 1 1 1 1 1 2 2 2 2 3 3 3 3 3 3 3 3 3 2 2 2 2 2 2 2 2 2
1 1 2 2 2 2 2 2 2 2 2 1 1 1 1 1 1 1 1 1 1 1 1 1 2 2 2 2 2 2 2 3 2 2 2 2 2 2 2 2 2 2 2 2
-0 1 2 3 2 1 2 2 1 2 1 1 1 1 1 1 1 1 1 0 0 1 1 1 1 2 2 2 2 2 2 2 2 2 2 2 2 2 2 1 1 1 1 1
-1 0 1 2 2 1 1 1 1 1 1 1 1 0 0 1 1 1 0 0 0 0 0 1 1 1 1 1 2 2 2 2 1 1 1 1 1 1 1 1 1 1 1 1
-1 0 1 3 2 2 1 1 1 1 0 -0 -0 -1 -0 1 0 0 -0 -0 -0 0 0 0 1 1 1 1 1 1 1 1 1 1 1 1 1 1 0 0 0 0 0 0
-1 -1 0 1 1 1 1 2 2 1 1 -0 -0 0 1 0 -0 -0 -0 -0 -0 -0 -0 0 0 0 0 1 1 1 1 1 1 0 0 0 0 0 0 -0 -0 -0 -0 -0
-2 -1 1 1 0 0 1 2 2 1 1 0 0 0 0 -0 -0 -1 -1 -1 -1 -1 -0 -0 -0 -0 0 0 0 0 0 0 0 -0 -0 -0 -0 -0 -0 -1 -1 -1 -1 -1
-1 0 1 1 2 2 2 2 1 1 1 1 0 -0 -0 -1 -1 -1 -1 -1 -1 -1 -1 -1 -1 -1 -1 -0 -0 -0 -0 -0 -0 -1 -1 -1 -1 -1 -1 -1 -1 -1 -2 -2
-2 -1 -0 1 1 2 1 1 1 1 1 0 0 -0 -1 -1 -1 -1 -1 -2 -2 -1 -1 -1 -1 -1 -1 -1 -1 -1 -1 -1 -1 -1 -1 -1 -2 -2 -2 -2 -2 -2 -2 -2
-2 -2 -1 1 1 1 1 1 0 0 0 -0 -0 -1 -1 -1 -1 -2 -2 -2 -2 -2 -2 -2 -2 -2 -2 -2 -2 -2 -2 -2 -2 -2 -2 -2 -2 -2 -2 -3 -3 -3 -3 -3
-1 -0 -1 1 1 1 0 0 -0 -0 -1 -1 -1 -1 -1 -1 -2 -2 -2 -2 -2 -2 -2 -2 -2 -2 -2 -2 -2 -2 -2 -2 -2 -3 -3 -3 -3 -3 -3 -3 -3 -3 -3 -3
2 2 1 1 1 1 -0 -0 -1 -1 -1 -1 -1 -2 -2 -2 -2 -2 -2 -2 -2 -3 -3 -3 -3 -3 -3 -3 -3 -3 -3 -3 -3 -3 -3 -3 -3 -3 -3 -3 -4 -4 -4 -4
1 1 0 1 0 0 -0 -1 -1 -1 -2 -2 -2 -2 -2 -2 -3 -3 -3 -3 -3 -3 -3 -3 -3 -3 -3 -3 -3 -3 -3 -3 -3 -3 -4 -4 -4 -4 -4 -4 -4 -4 -4 -4
1 1 1 1 0 -0 -1 -1 -2 -2 -2 -2 -2 -3 -3 -3 -3 -3 -3 -3 -3 -3 -3 -4 -3 -3 -3 -3 -3 -3 -4 -4 -4 -4 -4 -4 -4 -4 -4 -4 -4 -4 -4 -5
1 0 0 0 -0 -1 -1 -2 -2 -2 -2 -3 -3 -3 -3 -3 -3 -3 -3 -4 -4 -4 -4 -4 -4 -4 -4 -4 -4 -4 -4 -4 -4 -4 -4 -5 -5 -5 -5 -5 -5 -5 -5 -5
-0 -1 -1 -1 -1 -1 -1 -2 -2 -2 -3 -3 -3 -3 -3 -4 -4 -4 -4 -4 -4 -4 -4 -4 -4 -4 -4 -4 -4 -4 -4 -5 -5 -5 -5 -5 -5 -5 -5 -5 -6 -6 -6 -6
0 0 0 -0 -1 -1 -2 -2 -2 -3 -3 -3 -4 -4 -4 -4 -4 -4 -4 -4 -4 -4 -5 -5 -5 -5 -5 -5 -5 -5 -5 -5 -5 -5 -5 -6 -6 -6 -6 -6 -6 -6 -6 -6
-0 -0 -1 -1 -1 -1 -2 -2 -3 -3 -3 -4 -4 -4 -4 -4 -4 -5 -5 -5 -5 -5 -5 -5 -5 -5 -5 -5 -5 -5 -5 -6 -6 -6 -6 -6 -6 -6 -6 -6 -6 -6 -7 -7
-1 -1 -1 -1 -2 -2 -2 -3 -3 -3 -4 -4 -4 -4 -5 -5 -5 -5 -5 -5 -5 -5 -5 -5 -5 -5 -6 -6 -6 -6 -6 -6 -6 -6 -6 -6 -7 -7 -7 -7 -7 -7 -7 -7
-1 -2 -2 -2 -2 -2 -3 -3 -3 -4 -4 -4 -5 -5 -5 -5 -5 -5 -5 -5 -5 -6 -6 -6 -6 -6 -6 -6 -6 -6 -6 -6 -6 -6 -7 -7 -7 -7 -7 -7 -7 -7 -7 -7
-2 -2 -2 -2 -3 -3 -3 -3 -4 -4 -4 -4 -5 -5 -5 -5 -6 -6 -6 -6 -6 -6 -6 -6 -6 -6 -6 -6 -6 -6 -6 -7 -7 -7 -7 -7 -7 -7 -7 -7 -7 -7 -8 -8
-2 -2 -3 -3 -3 -3 -3 -4 -4 -4 -4 -5 -5 -5 -5 -6 -6 -6 -6 -6 -6 -7 -7 -6 -7 -7 -7 -7 -7 -7 -7 -7 -7 -7 -7 -7 -7 -8 -8 -8 -8 -8 -8 -8
-3 -3 -3 -3 -4 -4 -4 -4 -4 -5 -5 -5 -5 -6 -6 -6 -6 -6 -6 -6 -7 -7 -7 -7 -7 -7 -7 -7 -7 -7 -7 -7 -7 -8 -8 -8 -8 -8 -8 -8 -8 -8 -8 -8
-3 -3 -4 -4 -4 -4 -4 -4 -5 -5 -5 -5 -6 -6 -6 -6 -6 -6 -7 -7 -7 -7 -7 -7 -7 -7 -7 -7 -7 -7 -8 -8 -8 -8 -8 -8 -8 -8 -8 -8 -8 -8 -8 -8
-3 -4 -4 -4 -4 -5 -5 -5 -5 -5 -5 -6 -6 -6 -6 -7 -7 -7 -7 -7 -7 -7 -7 -7 -7 -8 -8 -8 -8 -8 -8 -8 -8 -8 -8 -8 -8 -9 -9 -9 -9 -9 -9 -9
-4 -4 -4 -5 -5 -5 -5 -5 -5 -6 -6 -6 -6 -6 -7 -7 -7 -7 -7 -7 -7 -7 -8 -8 -8 -8 -8 -8 -8 -8 -8 -8 -8 -9 -9 -9 -9 -9 -9 -9 -9 -9 -9 -9
Wind_Speed
6 6 4 6 6 5 5 6 6 7 8 10 7 5 4 3 3 3 4 5 5 4 4 5 4 4 3 2 1 0 1 1 1 1 1 1 1 1 0 0 0 0 1 1
4 4 5 6 7 7 8 6 7 7 9 7 4 2 2 3 3 3 5 5 5 4 4 5 5 4 3 2 2 0 1 1 1 1 1 1 1 1 0 0 1 1 1 1
4 5 4 6 7 8 5 5 6 8 8 3 3 4 4 4 3 3 4 5 4 4 4 5 4 3 3 3 1 0 0 1 1 1 1 1 1 1 1 1 1 1 2 1
1 2 5 6 2 5 6 6 6 5 4 4 5 5 4 3 2 3 4 4 4 4 5 5 4 3 2 2 1 0 0 0 0 0 0 0 0 0 1 1 1 1 1 1
2 3 7 7 4 3 4 6 5 5 5 4 3 3 4 2 1 3 4 3 4 4 4 4 4 3 2 2 1 1 1 1 1 1 1 0 1 1 1 1 1 1 1 1
2 3 6 6 3 1 2 5 4 4 5 3 0 3 6 3 3 3 2 2 3 3 4 4 4 3 1 1 1 1 2 2 1 1 1 1 1 1 1 1 1 1 1 1
4 5 8 6 1 3 2 7 4 4 4 4 5 6 4 2 3 2 2 3 2 2 3 3 4 2 1 1 2 2 2 1 1 1 1 1 0 0 0 0 1 1 1 1
5 5 9 4 4 6 7 3 2 3 4 4 4 3 2 2 2 2 2 2 2 2 3 4 3 1 2 2 3 2 1 1 1 0 0 0 1 0 0 0 1 1 1 2
9 9 5 4 6 4 2 3 4 3 3 3 3 4 3 3 3 2 2 2 2 2 3 4 3 2 2 3 2 1 1 1 1 1 1 1 1 0 1 1 0 1 1 1
6 9 7 6 5 4 3 4 4 4 3 3 4 4 4 3 3 2 2 2 2 2 2 3 3 3 3 2 1 1 1 1 1 1 1 1 1 0 0 0 0 1 1 1
7 7 5 6 7 6 4 3 2 3 3 4 4 4 4 4 3 3 3 2 2 2 2 3 3 3 3 2 1 1 0 1 1 1 1 1 1 1 1 1 2 2 2 2
8 7 6 7 6 5 4 4 4 3 3 3 4 4 3 3 3 2 2 1 1 1 2 3 2 3 3 2 1 0 0 0 0 0 0 0 1 2 3 2 3 3 2 2
6 4 5 5 4 5 5 5 4 4 4 3 3 3 3 3 2 2 2 1 2 2 2 2 2 3 3 2 1 0 1 1 0 0 0 0 0 1 2 3 3 3 3 3
5 3 3 4 4 4 3 3 2 2 2 3 3 2 2 2 2 2 3 3 2 2 2 2 2 3 3 2 1 1 1 1 1 1 1 1 1 1 1 1 2 2 3 4
7 6 6 4 3 2 2 1 1 2 2 2 2 2 3 3 3 3 3 1 1 1 2 2 3 4 3 2 1 1 1 1 1 1 1 1 1 1 1 1 1 1 2 3
5 4 4 4 3 3 2 2 3 4 3 3 3 3 3 3 3 2 2 1 1 2 3 3 4 3 2 2 1 1 2 3 2 1 1 1 1 1 1 1 1 1 1 2
5 5 5 5 5 4 4 5 5 5 4 4 4 3 2 1 1 2 2 2 2 3 3 3 4 2 2 1 1 1 1 2 2 1 1 1 1 1 1 1 1 1 2 2
8 7 7 7 6 5 5 4 4 4 4 4 3 2 2 3 3 3 3 2 2 3 3 3 2 2 1 1 1 1 1 1 1 1 1 1 1 1 1 1 2 2 2 2
5 5 5 5 5 5 4 4 4 3 3 2 2 3 3 3 3 3 2 2 2 3 4 3 3 2 2 2 2 1 1 1 1 1 1 2 2 1 1 2 2 2 2 2
4 4 4 4 3 3 4 3 3 3 3 3 2 2 3 3 3 2 2 3 4 4 3 3 3 2 2 3 3 2 2 2 2 2 2 2 2 2 2 2 2 2 2 2
4 4 4 4 3 3 3 3 3 3 3 3 3 4 4 3 3 2 2 4 4 3 3 3 2 2 2 3 3 2 2 2 2 2 2 2 2 2 2 2 2 2 2 3
4 4 4 4 3 2 2 2 3 3 2 2 3 3 3 3 3 3 4 4 4 3 2 2 2 3 3 3 2 2 2 2 2 2 2 2 2 3 3 3 3 3 3 3
4 4 4 4 4 3 2 2 3 3 3 3 3 4 4 4 3 3 4 3 3 4 2 2 4 5 4 2 1 2 2 2 2 2 3 3 3 3 3 3 3 3 3 3
4 4 4 3 3 3 3 3 3 2 3 3 4 4 3 3 3 4 3 4 4 4 3 4 5 5 3 1 1 2 2 3 3 3 3 3 3 3 3 3 3 3 3 3
4 3 3 4 4 4 4 3 2 2 2 2 3 3 3 3 3 3 3 3 4 4 2 4 5 4 2 1 2 2 3 3 3 3 3 3 3 3 3 3 3 3 3 3
4 4 4 4 4 3 3 3 2 2 2 2 3 2 2 2 2 2 2 2 3 4 2 2 2 3 2 2 3 3 3 3 4 3 3 4 4 4 4 4 4 4 4 4
3 3 2 2 2 3 3 3 3 3 3 3 3 2 2 2 1 2 2 2 2 2 2 2 2 2 2 2 3 3 3 3 3 3 3 3 3 4 4 4 4 4 4 4
Wind_Direction
260 266 249 254 259 238 220 218 218 244 247 260 259 255 266 293 319 335 342 339 333 332 332 334 332 326 324 326 320 343 136 150 179 182 169 149 148 177 163 160 343 294 307 304
289 273 258 274 268 246 239 236 240 255 264 262 272 256 274 300 311 316 323 324 325 330 327 325 326 324 325 319 315 335 162 182 188 142 149 161 176 162 145 305 313 304 294 290
271 302 322 278 243 221 227 224 212 236 250 259 277 265 260 259 270 284 305 315 317 316 316 312 315 323 315 303 317 355 224 198 164 159 190 209 180 150 196 241 265 281 286 276
257 10 249 252 241 210 223 245 237 244 248 237 251 268 268 235 234 278 298 303 310 312 314 311 309 317 322 332 16 12 243 328 267 186 207 233 143 224 252 246 249 260 278 255
177 243 275 287 258 198 210 266 244 235 257 282 320 327 291 249 256 267 275 289 299 303 305 314 318 321 336 352 15 17 327 299 281 229 203 201 222 250 256 247 261 265 279 238
175 218 249 258 255 208 115 279 251 226 244 264 6 292 274 264 289 289 291 304 312 317 324 328 324 332 2 332 347 322 299 287 265 216 193 206 230 240 264 261 266 286 302 265
209 237 262 253 207 112 175 261 273 227 223 219 226 244 261 268 280 274 299 309 322 327 324 316 317 344 2 339 304 302 315 317 299 235 219 209 206 264 315 332 353 336 331 336
181 220 256 208 144 190 230 274 271 246 230 232 253 270 261 253 262 283 312 316 328 329 324 324 327 349 349 315 306 327 356 21 358 318 283 105 102 14 13 51 34 353 -0 355
201 222 255 208 214 233 228 254 261 247 251 231 249 261 267 262 257 263 274 290 305 309 317 327 335 342 318 309 324 2 51 40 2 14 24 57 98 62 28 62 52 327 340 334
249 259 258 256 253 254 245 245 257 250 242 225 241 249 256 259 261 266 279 279 296 307 308 318 328 331 315 322 2 68 64 26 25 46 24 18 27 28 72 207 254 281 293 301
252 268 282 259 238 240 248 252 258 267 247 230 225 242 243 247 252 254 272 278 269 263 278 299 320 329 331 340 28 67 55 35 26 24 31 12 359 332 285 240 237 247 245 248
232 229 221 249 238 226 234 242 241 247 262 248 220 227 233 236 243 248 259 267 271 272 284 300 317 323 330 342 2 63 352 346 343 329 350 3 342 338 337 325 318 312 307 298
226 229 227 252 243 217 223 238 238 232 232 248 242 224 221 235 242 247 262 258 249 260 274 292 308 314 324 341 345 332 273 285 286 290 289 296 298 294 318 341 352 355 347 336
218 195 233 237 235 226 224 229 229 238 240 228 233 226 211 226 244 247 255 256 253 264 278 289 298 302 311 327 335 322 301 285 285 264 250 256 266 270 273 304 329 340 349 351
224 215 219 228 214 212 200 189 212 244 241 245 233 224 214 218 237 251 262 265 271 277 281 286 288 294 313 315 319 313 307 296 281 266 258 253 258 265 279 286 302 319 338 342
222 219 208 201 209 215 206 210 223 237 235 237 242 238 230 228 241 257 266 235 224 259 268 272 277 285 304 314 317 308 293 288 288 269 261 262 250 244 253 263 285 302 310 321
192 212 210 216 220 225 223 224 223 228 231 232 237 237 234 236 256 268 273 263 247 254 258 261 269 284 294 291 282 281 285 284 285 288 261 250 244 242 239 241 260 276 282 294
210 211 202 201 207 220 231 230 227 228 232 236 233 221 220 227 243 258 267 280 291 293 284 268 266 279 275 274 269 267 274 276 271 261 255 245 243 233 233 237 255 268 282 296
206 201 201 203 204 205 214 221 227 230 231 218 216 227 235 241 246 257 260 256 261 276 281 271 274 276 261 254 257 246 253 264 270 270 258 263 273 246 237 243 256 265 269 280
191 189 190 194 191 194 208 217 217 227 227 211 212 230 251 257 251 252 250 251 250 252 258 262 263 255 251 252 252 237 239 250 258 262 260 252 247 248 246 252 259 266 271 273
188 190 188 190 198 205 203 201 202 221 231 212 212 229 246 258 249 239 244 266 271 255 256 259 256 249 247 250 251 237 235 244 252 253 251 251 251 253 254 256 261 265 267 272
186 189 193 191 192 214 217 202 202 212 221 228 231 233 241 257 259 257 249 248 263 263 262 254 255 256 258 262 242 231 236 241 246 247 246 246 248 251 256 260 262 265 266 268
191 190 192 196 197 203 215 213 209 207 219 230 234 235 239 246 239 241 266 261 257 264 267 255 262 266 269 263 236 235 243 246 247 248 250 250 249 249 252 256 259 264 264 267
193 194 194 185 165 178 217 233 221 221 229 241 242 237 236 249 260 249 252 269 266 265 263 266 271 268 273 271 248 249 249 249 248 248 248 252 252 253 254 255 258 260 261 266
190 189 183 177 190 210 219 218 218 231 236 251 256 251 241 233 242 260 263 264 269 274 276 270 269 271 273 264 251 250 249 248 250 250 244 248 253 254 254 254 255 258 260 263
191 193 200 205 207 209 204 200 214 227 232 254 266 262 259 257 248 256 269 272 270 278 278 273 270 271 268 259 257 256 254 262 268 261 253 253 252 253 255 253 251 250 252 256
189 192 194 213 221 208 201 201 213 225 225 231 251 256 251 253 257 265 272 280 282 281 278 276 273 269 266 264 263 260 259 259 258 256 254 252 250 248 248 249 250 249 251 254
Height
1525 1521 1520 1518 1516 1516 1517 1516 1516 1510 1508 1501 1500 1499 1498 1497 1495 1494 1493 1491 1489 1488 1486 1485 1483 1482 1481 1480 1480 1480 1480 1479 1479 1480 1480 1480 1480 1480 1480 1480 1480 1480 1480 1480
1523 1519 1518 1516 1512 1511 1511 1510 1509 1507 1504 1498 1497 1497 1496 1495 1494 1492 1491 1490 1488 1486 1485 1483 1482 1480 1480 1479 1479 1479 1478 1478 1478 1478 1478 1478 1478 1478 1478 1478 1478 1478 1477 1477
1524 1520 1517 1515 1508 1507 1506 1504 1504 1503 1498 1496 1496 1494 1493 1492 1492 1491 1489 1488 1486 1485 1483 1482 1481 1479 1479 1478 1478 1477 1476 1476 1476 1476 1475 1476 1476 1476 1476 1476 1476 1475 1475 1475
1527 1524 1522 1505 1502 1501 1501 1499 1498 1495 1494 1493 1492 1491 1490 1490 1490 1488 1487 1486 1484 1483 1481 1480 1479 1478 1477 1476 1476 1475 1474 1474 1474 1473 1473 1473 1473 1473 1473 1474 1474 1473 1473 1472
1529 1526 1515 1504 1499 1500 1500 1497 1494 1493 1492 1492 1491 1490 1488 1488 1487 1486 1485 1484 1482 1481 1479 1478 1476 1476 1475 1474 1473 1473 1472 1472 1471 1471 1471 1471 1471 1471 1472 1472 1471 1471 1470 1470
1529 1523 1514 1499 1496 1495 1498 1497 1490 1489 1489 1489 1489 1490 1485 1484 1484 1483 1482 1481 1480 1478 1477 1475 1474 1474 1473 1472 1471 1470 1470 1470 1470 1469 1469 1469 1469 1469 1469 1469 1469 1469 1468 1468
1525 1522 1507 1497 1494 1495 1501 1494 1487 1486 1486 1487 1486 1485 1483 1481 1480 1480 1479 1478 1477 1476 1474 1473 1472 1471 1470 1469 1469 1469 1468 1468 1467 1467 1467 1467 1467 1467 1467 1467 1467 1466 1466 1465
1522 1520 1506 1492 1493 1495 1491 1486 1485 1484 1483 1483 1482 1481 1480 1479 1478 1477 1476 1475 1475 1474 1472 1471 1470 1469 1468 1467 1467 1466 1466 1465 1465 1465 1465 1465 1465 1465 1465 1465 1464 1464 1463 1463
1504 1498 1489 1488 1487 1486 1486 1484 1483 1482 1481 1480 1479 1478 1477 1476 1475 1475 1474 1473 1472 1471 1470 1470 1468 1467 1466 1465 1465 1464 1463 1463 1463 1463 1463 1463 1462 1462 1462 1462 1462 1462 1461 1461
1498 1489 1486 1485 1484 1483 1483 1482 1481 1480 1479 1478 1477 1476 1474 1474 1473 1472 1471 1471 1470 1469 1468 1467 1466 1466 1465 1464 1463 1462 1461 1461 1461 1461 1461 1461 1460 1460 1460 1460 1460 1459 1459 1459
1491 1485 1483 1480 1480 1480 1480 1479 1478 1477 1476 1475 1474 1473 1472 1471 1470 1469 1469 1469 1468 1467 1466 1465 1465 1464 1463 1462 1461 1460 1459 1459 1459 1459 1458 1458 1458 1458 1458 1458 1458 1458 1457 1457
1483 1478 1478 1476 1476 1476 1476 1475 1474 1473 1472 1472 1471 1470 1469 1468 1467 1467 1466 1466 1465 1465 1464 1464 1463 1462 1461 1460 1459 1459 1458 1457 1457 1457 1456 1456 1456 1456 1456 1456 1456 1455 1455 1455
1473 1473 1473 1472 1472 1472 1472 1471 1471 1470 1469 1468 1467 1467 1466 1465 1465 1465 1464 1464 1463 1462 1462 1461 1460 1459 1459 1458 1457 1457 1456 1455 1455 1454 1454 1454 1454 1454 1453 1454 1453 1453 1452 1452
1469 1470 1469 1469 1469 1469 1468 1468 1467 1466 1466 1465 1464 1464 1463 1463 1462 1462 1462 1461 1461 1460 1459 1458 1458 1457 1457 1456 1455 1454 1454 1453 1453 1452 1452 1452 1452 1451 1451 1450 1450 1449 1450 1449
1465 1466 1466 1465 1465 1465 1465 1464 1464 1463 1462 1462 1461 1461 1460 1460 1459 1459 1459 1459 1458 1457 1456 1456 1455 1455 1454 1453 1453 1452 1451 1451 1451 1450 1450 1449 1449 1449 1448 1448 1447 1447 1446 1446
1461 1461 1461 1462 1461 1461 1461 1461 1460 1459 1459 1458 1458 1458 1458 1457 1457 1456 1456 1455 1455 1454 1453 1453 1452 1452 1451 1451 1450 1449 1449 1449 1448 1447 1447 1447 1446 1446 1446 1445 1445 1444 1443 1443
1456 1456 1456 1457 1458 1458 1458 1457 1457 1456 1456 1456 1455 1455 1455 1454 1454 1453 1453 1452 1452 1451 1451 1450 1449 1449 1448 1448 1447 1447 1446 1446 1445 1445 1444 1444 1443 1443 1443 1442 1442 1441 1441 1440
1452 1452 1453 1453 1454 1454 1454 1454 1454 1454 1453 1453 1453 1452 1451 1451 1450 1450 1449 1449 1448 1448 1448 1447 1447 1446 1446 1445 1445 1444 1443 1443 1442 1442 1441 1441 1440 1440 1440 1440 1439 1439 1438 1438
1448 1449 1450 1451 1451 1451 1451 1451 1451 1451 1450 1450 1449 1449 1448 1448 1448 1447 1447 1446 1445 1444 1444 1444 1444 1443 1443 1442 1442 1441 1441 1440 1440 1439 1439 1438 1438 1438 1437 1437 1436 1436 1435 1435
1445 1446 1447 1447 1448 1448 1448 1448 1448 1448 1447 1447 1446 1446 1445 1445 1445 1444 1444 1443 1442 1442 1442 1441 1441 1440 1440 1439 1439 1438 1438 1437 1437 1436 1436 1436 1435 1435 1435 1434 1434 1433 1433 1432
1441 1443 1443 1444 1444 1445 1445 1445 1445 1445 1444 1444 1443 1443 1442 1442 1442 1441 1440 1440 1440 1439 1439 1438 1438 1437 1437 1436 1436 1435 1435 1434 1434 1434 1433 1433 1433 1432 1432 1431 1431 1430 1430 1429
1439 1440 1440 1441 1441 1442 1442 1442 1442 1442 1441 1441 1441 1440 1440 1439 1439 1438 1438 1437 1437 1436 1436 1435 1435 1434 1434 1434 1433 1432 1432 1432 1431 1431 1430 1430 1430 1429 1429 1428 1428 1428 1427 1426
1436 1436 1437 1438 1439 1439 1440 1440 1440 1439 1439 1438 1438 1437 1436 1436 1435 1435 1434 1434 1433 1433 1432 1432 1432 1431 1431 1430 1430 1429 1429 1429 1428 1428 1427 1427 1427 1426 1426 1426 1425 1425 1424 1423
1432 1433 1434 1435 1436 1436 1436 1436 1436 1436 1436 1436 1435 1434 1434 1433 1432 1432 1431 1430 1430 1430 1429 1429 1428 1428 1428 1427 1427 1426 1426 1425 1425 1424 1424 1424 1423 1423 1423 1422 1422 1421 1421 1420
1429 1430 1431 1431 1432 1432 1433 1433 1433 1433 1433 1432 1432 1431 1431 1430 1429 1428 1428 1427 1427 1426 1426 1425 1425 1425 1424 1423 1423 1423 1422 1422 1421 1421 1420 1420 1419 1419 1419 1418 1418 1417 1417 1416
1426 1427 1427 1428 1428 1429 1429 1429 1429 1429 1429 1429 1428 1428 1428 1427 1426 1425 1425 1424 1423 1423 1422 1422 1421 1421 1420 1420 1419 1419 1418 1418 1417 1417 1416 1416 1416 1415 1415 1414 1414 1414 1413 1413
1422 1423 1424 1424 1425 1425 1425 1425 1425 1425 1425 1425 1425 1425 1424 1424 1423 1422 1421 1421 1420 1419 1419 1418 1418 1417 1417 1416 1416 1415 1415 1414 1413 1413 1412 1412 1412 1411 1411 1411 1410 1410 1409 1409